Weather History for Ozona, TX

Change the Weather History Date:

Monday, February 18, 2013

  Actual Average Record
Temperature  
Mean Temperature 60 °F -  
Max Temperature 73 °F 62 °F 80 °F (2014)
Min Temperature 46 °F 34 °F 41 °F (2014)
Degree Days  
Heating Degree Days 6    
Growing Degree Days 10 (Base 50)    
Moisture  
Dew Point 30 °F    
Average Humidity 44    
Maximum Humidity 88    
Minimum Humidity 9    
Precipitation  
Precipitation 0.00 in - - ()
Sea Level Pressure  
Sea Level Pressure 29.97 in    
Wind  
Wind Speed 16 mph (West)    
Max Wind Speed 25 mph    
Max Gust Speed 38 mph    
Visibility 10 miles    
Events      
Averages and records for this station are not official NWS values.
T = Trace of Precipitation, MM = Missing Value Source: NWS Daily Summary

Daily Weather History Graph

Daily Weather History Graph

Search for Another Location

Airport:

Trip Planner

Search our weather history database for the weather conditions in past years. The results will help you decide how hot, cold, wet, or windy it might be!

Date:

Astronomy

Feb. 18, 2013 Rise Set
Actual Time 7:22 AM CST 6:35 PM CST
Civil Twilight 6:57 AM CST 6:59 PM CST
Nautical Twilight 6:29 AM CST 7:28 PM CST
Astronomical Twilight 6:01 AM CST 7:56 PM CST
Moon 12:34 PM CST (2/18) 1:53 AM CST (2/18)
Length of Visible Light 12h 02m
Length of Day
11h 13m
First Quarter, 58% of the Moon is Illuminated
Feb 18
First Quarter
Feb 25
Full
Mar 4
Last Quarter
Mar 11
New
Mar 19
First Quarter

Hourly Weather History & Observations

Time (CST) Temp. Windchill Dew Point Humidity Pressure Visibility Wind Dir Wind Speed Gust Speed Precip Events Conditions
12:15 AM 55.4 °F - 46.4 °F 72% 29.88 in 10.0 mi South 19.6 mph 26.5 mph N/A   Clear
12:35 AM 55.4 °F - 46.4 °F 72% 29.88 in 10.0 mi South 19.6 mph 28.8 mph N/A   Clear
12:55 AM 55.4 °F - 46.4 °F 72% 29.88 in 10.0 mi South 24.2 mph 31.1 mph N/A   Clear
1:15 AM 53.6 °F - 46.4 °F 77% 29.88 in 10.0 mi South 19.6 mph 31.1 mph N/A   Clear
1:35 AM 53.6 °F - 46.4 °F 77% 29.88 in 10.0 mi South 19.6 mph 26.5 mph N/A   Clear
1:55 AM 55.4 °F - 48.2 °F 77% 29.88 in 10.0 mi South 24.2 mph 31.1 mph N/A   Clear
2:15 AM 55.4 °F - 48.2 °F 77% 29.87 in 10.0 mi South 25.3 mph 33.4 mph N/A   Clear
2:35 AM 55.4 °F - 50.0 °F 82% 29.87 in 10.0 mi South 21.9 mph 34.5 mph N/A   Clear
2:55 AM 55.4 °F - 50.0 °F 82% 29.86 in 10.0 mi South 23.0 mph 31.1 mph N/A   Clear
3:15 AM 55.4 °F - 50.0 °F 82% 29.86 in 10.0 mi South 18.4 mph 34.5 mph N/A   Clear
3:35 AM 55.4 °F - 50.0 °F 82% 29.86 in 10.0 mi South 18.4 mph 27.6 mph N/A   Clear
3:55 AM 55.4 °F - 50.0 °F 82% 29.86 in 10.0 mi South 16.1 mph 28.8 mph N/A   Clear
4:15 AM 55.4 °F - 50.0 °F 82% 29.86 in 10.0 mi South 20.7 mph 25.3 mph N/A   Clear
4:35 AM 55.4 °F - 50.0 °F 82% 29.86 in 10.0 mi South 17.3 mph 25.3 mph N/A   Clear
4:55 AM 55.4 °F - 50.0 °F 82% 29.87 in 10.0 mi South 15.0 mph - N/A   Clear
5:15 AM 55.4 °F - 50.0 °F 82% 29.87 in 10.0 mi South 17.3 mph 25.3 mph N/A   Clear
5:35 AM 55.4 °F - 50.0 °F 82% 29.88 in 10.0 mi SSW 15.0 mph 20.7 mph N/A   Clear
5:55 AM 53.6 °F - 50.0 °F 88% 29.89 in 10.0 mi SSW 8.1 mph 18.4 mph N/A   Clear
6:15 AM 53.6 °F - 50.0 °F 88% 29.91 in 10.0 mi SSW 6.9 mph - N/A   Clear
6:35 AM 53.6 °F - 50.0 °F 88% 29.91 in 10.0 mi SSW 11.5 mph 16.1 mph N/A   Clear
6:55 AM 53.6 °F - 50.0 °F 88% 29.92 in 10.0 mi SSW 11.5 mph - N/A   Clear
7:15 AM 53.6 °F - 50.0 °F 88% 29.94 in 10.0 mi SW 6.9 mph - N/A   Clear
7:35 AM 53.6 °F - 50.0 °F 88% 29.95 in 10.0 mi SW 5.8 mph - N/A   Clear
7:55 AM 53.6 °F - 50.0 °F 88% 29.95 in 10.0 mi SSW 6.9 mph - N/A   Clear
8:15 AM 53.6 °F - 50.0 °F 88% 29.96 in 10.0 mi SSW 8.1 mph - N/A   Clear
8:35 AM 55.4 °F - 50.0 °F 82% 29.97 in 10.0 mi SW 8.1 mph - N/A   Clear
8:55 AM 55.4 °F - 50.0 °F 82% 29.98 in 10.0 mi SSW 9.2 mph - N/A   Clear
9:15 AM 57.2 °F - 50.0 °F 77% 29.99 in 10.0 mi SSW 9.2 mph - N/A   Clear
9:35 AM 59.0 °F - 46.4 °F 63% 29.99 in 10.0 mi SW 9.2 mph - N/A   Clear
9:55 AM 62.6 °F - 44.6 °F 52% 30.00 in 10.0 mi WSW 8.1 mph - N/A   Clear
10:15 AM 62.6 °F - 41.0 °F 45% 30.00 in 10.0 mi SW 6.9 mph - N/A   Clear
10:35 AM 66.2 °F - 32.0 °F 28% 29.99 in 10.0 mi WNW 16.1 mph 24.2 mph N/A   Clear
10:55 AM 68.0 °F - 26.6 °F 21% 29.99 in 10.0 mi WNW 17.3 mph 29.9 mph N/A   Clear
11:15 AM 69.8 °F - 21.2 °F 16% 29.99 in 10.0 mi WNW 18.4 mph 31.1 mph N/A   Clear
11:35 AM 71.6 °F - 17.6 °F 13% 29.99 in 10.0 mi WNW 21.9 mph 31.1 mph N/A   Clear
11:55 AM 71.6 °F - 15.8 °F 12% 30.00 in 10.0 mi WNW 20.7 mph 38.0 mph N/A   Clear
12:15 PM 71.6 °F - 14.0 °F 11% 29.99 in 10.0 mi NW 19.6 mph 29.9 mph N/A   Clear
12:35 PM 71.6 °F - 14.0 °F 11% 29.98 in 10.0 mi West 19.6 mph 27.6 mph N/A   Clear
12:55 PM 71.6 °F - 14.0 °F 11% 29.97 in 10.0 mi WNW 17.3 mph 27.6 mph N/A   Clear
1:15 PM 73.4 °F - 14.0 °F 10% 29.97 in 10.0 mi WNW 19.6 mph 27.6 mph N/A   Clear
1:35 PM 73.4 °F - 14.0 °F 10% 29.97 in 10.0 mi WNW 19.6 mph 31.1 mph N/A   Clear
1:55 PM 73.4 °F - 14.0 °F 10% 29.96 in 10.0 mi WNW 20.7 mph 26.5 mph N/A   Clear
2:15 PM 73.4 °F - 14.0 °F 10% 29.95 in 10.0 mi NW 17.3 mph 27.6 mph N/A   Clear
2:35 PM 73.4 °F - 12.2 °F 10% 29.95 in 10.0 mi NW 12.7 mph 28.8 mph N/A   Clear
2:55 PM 73.4 °F - 12.2 °F 10% 29.95 in 10.0 mi NW 12.7 mph 26.5 mph N/A   Clear
3:15 PM 73.4 °F - 10.4 °F 9% 29.95 in 10.0 mi WNW 18.4 mph 25.3 mph N/A   Clear
3:35 PM 73.4 °F - 10.4 °F 9% 29.96 in 10.0 mi WNW 17.3 mph 24.2 mph N/A   Clear
3:55 PM 73.4 °F - 12.2 °F 10% 29.96 in 10.0 mi NW 17.3 mph 23.0 mph N/A   Clear
4:15 PM 73.4 °F - 12.2 °F 10% 29.96 in 10.0 mi WNW 16.1 mph 23.0 mph N/A   Clear
4:35 PM 73.4 °F - 10.4 °F 9% 29.96 in 10.0 mi NNW 12.7 mph 18.4 mph N/A   Clear
4:55 PM 71.6 °F - 10.4 °F 9% 29.97 in 10.0 mi NW 15.0 mph 24.2 mph N/A   Clear
5:15 PM 71.6 °F - 10.4 °F 9% 29.98 in 10.0 mi NNW 12.7 mph 18.4 mph N/A   Clear
5:35 PM 71.6 °F - 10.4 °F 9% 29.98 in 10.0 mi NW 12.7 mph 16.1 mph N/A   Clear
5:55 PM 69.8 °F - 10.4 °F 10% 29.99 in 10.0 mi NNW 10.4 mph 19.6 mph N/A   Clear
6:15 PM 68.0 °F - 12.2 °F 12% 30.00 in 10.0 mi NNE 15.0 mph - N/A   Clear
6:35 PM 64.4 °F - 14.0 °F 14% 30.01 in 10.0 mi NNE 8.1 mph - N/A   Clear
6:55 PM 60.8 °F - 14.0 °F 16% 30.02 in 10.0 mi NNE 6.9 mph - N/A   Clear
7:15 PM 59.0 °F - 14.0 °F 17% 30.03 in 10.0 mi North 11.5 mph - N/A   Clear
7:35 PM 59.0 °F - 17.6 °F 20% 30.05 in 10.0 mi NNE 8.1 mph - N/A   Clear
7:55 PM 57.2 °F - 17.6 °F 21% 30.07 in 10.0 mi NNE 6.9 mph - N/A   Clear
8:15 PM 55.4 °F - 19.4 °F 25% 30.08 in 10.0 mi NNE 8.1 mph - N/A   Clear
8:35 PM 51.8 °F - 19.4 °F 28% 30.08 in 10.0 mi NNE 9.2 mph - N/A   Clear
8:55 PM 51.8 °F - 19.4 °F 28% 30.07 in 10.0 mi NNE 11.5 mph - N/A   Clear
9:15 PM 51.8 °F - 19.4 °F 28% 30.08 in 10.0 mi ENE 5.8 mph - N/A   Clear
9:35 PM 51.8 °F - 19.4 °F 28% 30.09 in 10.0 mi NE 8.1 mph - N/A   Clear
9:55 PM 50.0 °F - 19.4 °F 30% 30.10 in 10.0 mi NE 5.8 mph - N/A   Clear
10:15 PM 50.0 °F - 19.4 °F 30% 30.10 in 10.0 mi NE 4.6 mph - N/A   Clear
10:35 PM 50.0 °F - 21.2 °F 32% 30.11 in 10.0 mi NE 4.6 mph - N/A   Clear
10:55 PM 48.2 °F - 21.2 °F 34% 30.11 in 10.0 mi NE 5.8 mph - N/A   Clear
11:15 PM 46.4 °F 42.4 °F 21.2 °F 37% 30.11 in 10.0 mi NE 8.1 mph - N/A   Clear
11:35 PM 48.2 °F - 23.0 °F 37% 30.11 in 10.0 mi ENE 8.1 mph - N/A   Clear
11:55 PM 48.2 °F - 24.8 °F 40% 30.10 in 10.0 mi NE 9.2 mph - N/A   Clear